Погода Нижний Тагил

Погода Нижний Тагил : погода сейчас, прогноз погоды и архив. Всё, что Вы хотите узнать о погоде Нижний Тагил!

Хотите узнать прогноз погоды Нижний Тагил? Тогда Вам сюда: Погода Нижний Тагил

Поиск расширенной информации на нашем сайте:

Полезная информация: Банкетный зал Московский гостиничный комплекс измайлово. Банкетный зал Московский тракт.
антигравийная пленка фото здесь

Другие новости

Новости СМИ2

Главная страница сайта

Новости сайта

02.10.2013

Напоминаем, что на нашем новом сайте вы можете получить высокодетализированные прогнозы погоды по пунктам России, СНГ и мира (включающие важные для авиации метеовеличины, такие как направление и скорость ветра, видимость, явления погоды, количество и форма облачности, нижняя и верхняя граница облачности), а также ознакомиться с разнообразными материалами по авиационной метеорологии и подборкой полезных ссылок на эту тему.

Сайт Метеоцентр.Азия посвящён разработке технологий оптимизации авиаметеорологического обслуживания, включая проектирование и перспективное создание нескольких автоматизированных авиаметеорологических систем:
- система выпуска высокодетальных прогностических карт явлений погоды для нижнего воздушного пространства по России и ближнему зарубежью;
- система верификации прогнозов TAF (выпускаемых синоптиками официальных АМСГ РФ и ближнего зарубежья) и AUTOTAF (выпускаемых сайтом Метеоцентр.Азия) - выявление ошибок, онлайн-сопоставление с фактической погодой METAR, автоматическое внесение коррективов в прогнозы при резком отклонении фактической погоды от прогноза, подсчёт оправдываемости прогнозов по элементам и в целом;
- система обработки, анализа и отображения авиаметеорологической информации для применения провайдерами метеорологической информации.

Рекомендуем: Запчасти крайслер пацифика. Защитная шторка против солнца.

Погода Нижний Тагил - сегодня

Время (UTC), дата Ветер
(°,м/с) 
Видим.   Явления Облачность Т
(°С)
Тd
(°С)
f(%) Тe
(°С)
Pmin
(гПа)
dP
(гПа)
Po
(мм)
O2
(г/м3)
Тmin Tmax R s Состояние
почвы
18 28.10.14 250 (З) 6-10{11}  20000 м  позёмок{снег}  10/6 600 м средняя 
[St|Ac trans]
-1 -3.4 84 -5  1010.2  -1  733  297           
21 28.10.14 250 (З) 6{12}  20000 м  позёмок  10/10 600 м 
[Sc]
-0.4 -2 89 -4  1009.4  -0.7  733  296           
00 29.10.14 250 (З) 5{10}  4000 м  слаб. снег  10/10 600 м 
[Sc]
-1.3   1009.1  -0.2  733             
03 29.10.14 250 (З) 6{10}  20000 м  в посл. час снег  10/10 600 м 
[Sc]
+0.9 -0.6 90 -2  1008.3  -0.7  732  294  -1.6    0.0  22  равномерный
мокрый или
старый снег
100% 
06 29.10.14 260 (З) 6{11}  20000 м  {снег}  10/10 600 м кучево-дожд. 
[Cb cap]
+2.2 -0.1 85 -1  1009.6  1.4  733  293           
09 29.10.14 270 (З) 5{11}  20000 м  в посл. час ливневой дождь  10/10 600 м кучево-дожд. 
[Cb cap]
+2.8 +0.5 85 1011.9  2.3  735  293           
12 29.10.14 260 (З) 20000 м  {ливн. осадки}  10/10 600 м кучево-дожд. 
[Cb cap]
+2.8 +0.3 84 +1  1014.2  2.2  737  294           
15 29.10.14 260 (З) 20000 м    10/10 600 м кучево-дожд. 
[Cb cap]
+2.3 +0.4 87 +1  1016.1  1.8  738  295    +3.1  0.0     
18 29.10.14 240 (ЮЗ) 20000 м    10/10 600 м кучево-дожд. 
[Cb cap]
+1.8 +0 88 1016.4  0.3  738  295           
21 29.10.14 220 (ЮЗ) 4000 м  слаб. ливневой дождь  10/10 600 м кучево-дожд. 
[Cb cap]
+1.2 +0.2 93 +1  1016.3  -0.2  738  296           
00 30.10.14 240 (ЮЗ) 20000 м  {ливн. осадки}  10/10 600 м кучево-дожд. 
[Cb cap]
+1.7 +0.4 91 1015.9  -0.3  738  295           
03 30.10.14 240 (ЮЗ) 20000 м  {ливн. осадки}  10/10 600 м кучево-дожд. 
[Cb cap]
+1.8 +0.9 94 1016.2  0.2  738  295  +1.2    0.3  16  равномерный
мокрый или
старый снег
100% 
06 30.10.14 250 (З) 20000 м  {ливн. осадки}  10/10 600 м кучево-дожд. 
[Cb cap]
+3.3 +1.9 90 +1  1015.7  -0.3  738  293           
09 30.10.14 250 (З) 7-11{11}  20000 м    9/9 600 м кучево-дожд. 
[Cb cap]
+3.2 +0.5 82 1016.6  0.9  738  294           
12 30.10.14 250 (З) 5{11}  20000 м    6/0 верхняя 
[Cc]
+2.5 -0 84 1017.3  0.5  739  295           
15 30.10.14 250 (З) 4{12}  20000 м    3/0 средняя 
[Ac trans]
+1.8 -0.4 85 1018.3  740  296    +4.4       
18 30.10.14 250 (З) 4{10}  20000 м    6/0 средняя 
[Ac trans]
+2.1 -0.5 83 1019.2  0.9  740  296           
21 30.10.14 250 (З) 20000 м    9/4 600 м кучево-дожд., средняя 
[Cb cap|Ac trans]
+2.3 -0.2 83 1019.4  0.2  740  296           
00 31.10.14 250 (З) 5{11}  20000 м    10/10 600 м кучево-дожд. 
[Cb cap]
+2 -0.4 84 -1  1018  -1.4  739  296           
03 31.10.14 250 (З) 2{10}  20000 м    10/10 600 м кучево-дожд. 
[Cb cap]
+3.1 +0.8 85 +3  1017.1  -0.8  739  294  +1.7      12  равномерный
мокрый или
старый снег
100% 
06 31.10.14 260 (З) 3{11}  4000 м  дымка  10/10 600 м 
[Sc]
+3.2 +2 92 +2  1015.6  -1.4  738  293           
09 31.10.14 240 (ЮЗ) 4000 м  дымка  10/10 600 м кучево-дожд. 
[Cb cap]
+3.3 +1.9 90 +1  1014.6  -1  737  293           
12 31.10.14 240 (ЮЗ) 5{10}  4000 м  дымка  10/10 600 м кучево-дожд. 
[Cb cap]
+3.5 +1.2 85 +1  1014.3  -0.2  737  293           
15 31.10.14 250 (З) 5{11}  4000 м  дымка  10/10 600 м кучево-дожд. 
[Cb cap]
+3.2 +0.7 84 +1  1013.7  -0.6  736  293    +3.7       
18 31.10.14 240 (ЮЗ) 4000 м  дымка  10/10 600 м кучево-дожд. 
[Cb cap]
+3.2 -0.1 79 +1  1013.4  -0.3  736  293           
Время (UTC), дата Ветер
(°,м/с) 
Видим.   Явления Облачность Т
(°С)
Тd
(°С)
f(%) Тe
(°С)
Pmin
(гПа)
dP
(гПа)
Po
(мм)
O2
(г/м3)
Тmin Tmax R s Состояние
почвы

Для получения пояснительной информации подведите курсор к названию столбца.

ПОГОДА Нижний Тагил - архив

Всё, что Вы хотите узнать о погоде Нижний Тагил - удобно и подробно!

Выберите нужную дату (начиная с 1 января 2013* года) и нажмите кнопку "Найти".
Будут отображены архивные сводки погоды по пункту Нижний Тагил, начиная с указанной даты.


Отображать данные в формате CSV (для использования в таблицах Excel)


Внимание! Наш архив погоды предназначен исключительно для личного некоммерческого использования в познавательных целях. Если Вам необходимы официальные справки о состоянии погоды (для производственных, юридических, коммерческих и т.п. целей), обращайтесь в органы Росгидромета.

*Примечание: данная дата относится к архиву по метеостанциям СССР (Россия, СНГ, Балтия).
Архив по метеостанциям Зарубежной Европы и Азии (кроме Китая) хранится 10 дней, по другим регионам земного шара (Китай, Африка, Америка, Австралия, Океания) - 1 день.

Нижний Тагил - район местоположения метеостанции


Название, широта, долгота, высота метеостанции:
Нижний Тагил 57.9°ш. 60.1°д. 260 м над ур. моря [Российская Федерация]

Дополнительная информация

В oтличие oт бoльшинства пoгoдных сайтoв мы публикуем пoдрoбную метеoинфoрмацию в детальнoм прoфессиoнальнoм фoрмате.

Характеристики температуры и влажнoсти вoздуха измеряются на высoте 2 м в тени вдали oт зданий и деревьев.
Скoрoсть ветра измеряется на высoте 10 м (на урoвне рoста челoвека скoрoсть ветра ниже в 1.5-2 раза). Если метеoстанция нахoдится в гoрoде или в лесу, тo скoрoсть ветра занижена на 2-4 м/с пo сравнению с oткрытым местoм. Скoрoсть ветра над акватoриями крупных рек и oзёр, а также на вершинах хoлмoв на 2-5 м/с выше, чем в oбычных услoвиях.
Атмoсфернoе давление в разных тoчках местнoсти мoжет значительнo oтличаться oт давления на метеoстанции, в зависимoсти oт услoвий рельефа (при пoдъёме на 10 м давление пoнижается примернo на 1 мм рт.ст.).